Wind_Speed
8 8 7 8 9 10 11 10 10 10 11 11 12 12 12 12 13 13 13 12 13 13 13 13 14 14 14 14 14 14 15 15 15 15 15 16 17 17 18 18 19 19 19 19
7 8 8 9 10 11 12 12 10 11 11 11 11 12 12 13 14 13 13 13 14 14 14 15 15 15 14 14 15 15 15 16 16 16 17 17 17 18 19 19 19 20 20 20
8 8 9 10 10 11 11 12 13 13 13 12 13 12 13 13 13 13 13 13 14 14 15 15 16 15 15 16 16 16 17 17 17 18 18 19 19 20 20 20 21 21 21 21
10 10 11 10 10 11 12 12 12 13 13 12 12 13 13 13 12 13 13 14 14 15 15 16 16 16 17 17 18 18 18 18 18 19 20 20 20 21 21 21 21 22 22 23
12 12 13 12 11 11 12 12 12 13 13 13 13 14 14 13 13 13 14 14 15 16 17 17 17 18 18 18 19 20 20 19 20 20 21 21 21 22 22 22 22 23 24 24
14 14 15 15 13 13 13 13 13 14 15 15 15 15 15 15 15 16 16 17 18 18 19 19 19 19 19 19 19 20 20 21 21 21 22 22 22 23 23 23 23 24 24 24
16 16 17 16 16 15 15 15 15 15 16 16 17 17 17 18 18 18 18 19 20 20 20 20 20 20 21 21 21 21 21 21 22 22 22 23 23 24 24 24 25 25 25 26
18 18 20 18 18 18 17 16 17 18 18 17 18 19 19 19 19 19 20 20 20 21 21 21 21 21 22 22 22 22 22 23 23 23 24 24 25 25 25 25 26 26 27 28
21 21 21 21 20 20 19 18 18 19 20 20 20 20 20 20 20 21 21 21 21 21 22 22 22 22 23 23 24 24 25 25 25 25 26 26 26 26 27 27 27 28 29 30
23 23 23 23 22 22 21 21 21 21 21 21 21 21 21 21 21 22 22 22 23 23 22 23 23 24 25 25 26 26 27 27 27 27 27 27 28 28 29 29 30 31 32 32
25 25 25 24 23 23 23 22 22 22 22 22 22 22 22 23 23 23 23 23 23 24 24 24 25 25 26 26 27 27 28 28 29 29 29 29 30 30 31 32 33 33 34 34
26 26 27 26 25 24 25 24 24 23 24 23 23 23 23 23 23 23 23 24 25 25 25 26 26 27 27 28 28 28 29 30 30 31 31 31 31 32 32 33 34 34 35 36
28 27 28 28 26 26 26 26 25 25 25 25 24 25 25 25 25 25 25 26 26 27 27 27 28 29 29 30 31 31 32 32 32 32 32 32 33 33 33 34 35 36 37 37
29 29 29 28 28 27 27 27 27 27 27 26 26 26 27 27 27 27 27 27 27 28 29 29 30 31 32 32 33 33 33 33 33 33 34 34 34 35 35 35 36 37 38 39
31 30 30 29 29 29 28 28 28 28 28 28 28 28 28 28 28 28 29 29 29 29 30 31 32 33 33 33 34 34 34 34 34 34 35 35 36 36 37 38 38 38 39 40
32 32 31 32 31 31 31 30 30 30 29 29 29 29 29 29 29 29 29 30 30 30 31 32 33 33 33 33 33 34 34 34 35 35 35 36 37 38 38 39 40 41 41 42
33 32 32 33 33 33 32 32 31 31 31 31 31 30 30 31 31 31 31 31 32 32 32 32 33 33 33 33 33 33 34 34 35 36 37 37 38 39 40 41 42 42 43 44
33 33 33 33 33 33 33 33 33 33 33 32 32 32 32 32 32 32 32 33 33 33 33 33 33 33 34 34 34 34 35 35 36 37 38 39 39 40 41 42 43 43 44 44
33 33 33 33 34 34 34 34 34 34 33 33 32 33 33 33 33 33 33 33 33 34 34 34 34 35 35 35 35 35 36 37 38 39 40 40 41 42 42 43 43 44 45 45
33 33 33 34 34 34 34 34 34 34 34 34 34 33 33 33 33 33 34 34 35 35 35 36 36 36 36 36 37 37 38 39 39 40 40 41 42 42 43 43 43 44 44 45
33 33 34 34 34 34 34 35 35 34 34 34 34 34 34 33 33 34 35 35 36 36 36 36 36 37 37 37 37 38 39 39 40 40 41 42 42 43 43 43 44 45 45 45
33 34 34 34 34 34 34 34 35 34 34 34 34 34 34 34 34 34 35 35 36 36 37 37 37 38 37 37 37 38 39 40 41 41 42 42 42 42 43 43 44 44 45 45
33 33 34 34 34 34 34 35 34 34 34 33 34 34 34 34 35 35 35 35 36 37 37 37 37 37 37 38 38 39 40 40 41 42 42 42 42 43 43 43 44 44 45 45
33 34 33 34 34 35 34 34 34 34 33 33 34 34 34 35 35 35 35 35 36 37 37 38 38 38 38 39 39 40 40 41 41 42 41 41 42 42 43 43 43 43 44 44
34 34 34 34 34 34 34 34 34 34 34 35 35 35 36 36 36 36 36 37 37 37 38 38 38 39 39 40 40 41 42 42 41 41 41 41 42 43 43 43 43 43 44 45
35 34 34 34 34 34 34 34 34 35 35 36 36 36 36 37 37 37 37 38 38 39 39 39 39 40 41 41 42 42 42 41 41 41 42 42 43 43 43 43 43 44 44 44
35 35 35 35 35 35 35 35 35 35 36 36 36 36 37 37 37 37 37 38 39 39 40 40 41 41 41 42 42 42 41 41 42 42 42 42 42 43 43 43 44 44 44 44
Wind_Direction
231 238 250 247 239 237 243 246 250 240 244 253 259 257 254 255 251 248 247 248 251 250 250 255 260 262 264 265 266 270 272 274 277 280 283 284 284 285 286 285 283 284 285 286
239 243 254 256 251 248 249 253 254 254 253 259 265 265 259 256 253 251 249 252 253 253 256 261 264 265 267 268 268 270 272 275 277 280 283 285 286 286 287 288 286 285 285 285
246 253 262 261 260 258 256 255 254 257 260 263 262 263 259 256 253 252 253 256 256 255 261 265 267 267 268 269 270 271 273 275 278 279 282 284 285 287 287 287 286 286 286 286
250 251 255 263 263 263 260 257 257 259 262 261 262 263 262 261 256 253 255 259 261 261 262 266 268 268 269 270 271 272 273 276 278 280 283 285 286 286 286 287 286 285 285 286
249 253 257 261 261 261 263 263 261 263 265 264 261 263 264 264 260 258 261 263 264 266 268 270 269 270 271 272 271 272 274 277 279 281 283 284 285 285 286 287 287 287 287 287
251 254 256 260 258 261 264 263 263 264 265 266 263 263 265 265 264 264 265 267 267 268 270 272 271 271 273 273 273 273 275 278 279 280 281 282 283 284 285 285 287 288 289 289
253 254 257 261 264 266 264 265 267 268 269 268 265 264 266 268 269 268 267 267 267 268 271 272 272 272 272 274 275 276 278 279 280 280 281 282 283 285 285 285 286 287 288 288
259 256 257 264 266 265 266 266 268 269 269 271 266 264 265 267 267 267 267 269 270 270 271 271 271 271 272 273 275 276 278 280 280 280 281 283 283 284 285 285 286 287 288 289
261 262 265 267 267 266 266 267 267 267 268 269 269 267 266 267 267 268 269 270 271 271 271 271 270 271 272 273 275 276 278 279 280 281 282 283 283 283 284 285 285 286 288 289
259 261 265 266 266 265 266 268 268 268 269 271 271 269 268 269 270 270 271 271 272 272 272 272 271 273 274 274 275 277 279 281 282 282 283 283 283 284 284 284 285 287 288 289
258 260 262 265 267 268 269 269 268 268 270 271 272 271 270 270 270 272 273 273 273 272 272 272 274 275 277 278 278 279 280 281 282 283 283 283 283 284 284 284 285 286 288 289
259 261 264 265 267 267 268 267 268 269 269 270 271 271 271 271 272 273 275 275 275 275 275 276 276 277 279 280 281 281 281 282 282 283 283 284 284 284 285 285 286 286 287 289
259 260 263 265 266 267 268 268 267 268 270 270 270 270 270 270 272 274 276 276 276 276 277 278 278 278 280 281 282 282 282 282 283 284 284 284 284 284 285 286 287 287 288 289
259 260 262 264 265 267 269 270 268 268 268 268 268 269 271 272 273 273 275 276 277 277 278 279 279 280 281 281 281 282 283 284 284 284 284 284 285 285 285 286 287 288 289 290
258 260 261 262 263 265 267 268 268 268 268 267 268 269 270 272 274 275 275 276 278 279 280 280 280 282 282 282 282 283 283 284 284 284 285 285 285 285 286 286 287 288 289 290
259 259 260 261 263 264 266 267 268 268 267 268 269 270 271 272 273 275 276 277 278 280 281 282 282 281 282 282 283 283 283 283 284 285 285 286 286 287 287 288 289 290 290 291
259 259 260 261 262 264 265 266 267 267 267 268 269 270 270 272 273 275 277 277 279 281 282 283 283 282 282 283 284 284 284 284 285 285 285 286 286 287 288 289 290 291 291 292
260 260 261 261 261 262 264 266 267 268 268 268 269 270 270 272 274 275 276 277 279 280 281 282 282 283 284 285 284 284 285 285 285 285 286 287 288 288 290 290 291 291 292 293
259 260 261 261 261 262 264 266 267 268 267 268 268 269 270 272 274 275 276 278 279 280 281 282 283 284 284 284 284 284 285 286 286 287 288 289 289 290 291 291 292 292 293 293
259 259 260 261 262 263 265 266 267 267 267 268 269 270 271 273 274 275 276 277 279 280 280 281 282 284 285 285 285 285 286 287 288 289 289 290 290 291 291 292 292 292 293 294
259 260 260 262 263 264 265 265 266 266 267 267 268 270 272 273 275 276 277 277 278 278 279 280 283 285 286 287 287 288 288 288 288 289 290 290 291 291 291 292 292 293 293 294
261 262 262 262 263 264 264 265 266 266 267 268 269 270 271 273 275 276 277 277 278 279 281 282 284 285 286 287 288 289 289 289 289 289 290 290 291 292 292 292 293 294 294 295
262 263 264 263 263 263 264 264 265 266 267 268 269 270 271 273 275 276 277 277 279 281 282 283 284 284 285 286 287 289 290 291 292 292 292 292 293 293 294 294 295 295 296 296
263 263 263 263 263 263 264 265 265 265 266 267 268 270 271 273 275 276 278 279 280 281 282 283 284 285 286 287 288 290 291 292 293 293 294 293 293 294 295 295 296 296 297 298
263 262 263 263 263 264 264 265 266 266 266 267 269 270 271 273 274 277 279 280 281 282 282 283 284 285 287 288 290 291 292 292 293 293 294 293 293 294 295 296 296 298 299 300
262 262 263 263 263 264 265 266 266 267 268 269 270 272 274 274 275 277 278 279 280 281 282 283 284 286 288 289 290 291 291 291 292 293 293 294 294 295 296 297 297 298 299 299
261 262 263 263 263 263 264 265 267 269 269 270 271 273 274 275 276 277 277 278 279 280 281 283 285 286 288 290 290 291 292 292 292 293 294 295 296 297 297 298 298 298 299 300
Height
5836 5837 5838 5838 5839 5840 5841 5842 5842 5843 5844 5845 5846 5846 5847 5848 5849 5850 5851 5852 5853 5854 5855 5856 5857 5857 5858 5858 5859 5860 5860 5860 5860 5860 5860 5860 5859 5859 5858 5858 5857 5857 5856 5855
5835 5836 5836 5837 5838 5839 5839 5840 5841 5842 5842 5843 5843 5844 5844 5845 5846 5847 5848 5849 5850 5851 5852 5852 5853 5854 5854 5855 5855 5856 5856 5856 5856 5856 5856 5855 5855 5854 5854 5853 5852 5852 5851 5850
5833 5834 5834 5836 5836 5837 5837 5838 5839 5839 5840 5840 5841 5841 5842 5842 5843 5844 5845 5846 5847 5848 5848 5849 5849 5850 5850 5851 5851 5851 5851 5851 5851 5851 5851 5850 5850 5849 5849 5848 5847 5846 5846 5845
5831 5832 5833 5835 5834 5834 5835 5835 5836 5836 5837 5837 5838 5838 5838 5839 5840 5841 5842 5843 5843 5844 5845 5845 5845 5845 5846 5846 5846 5847 5847 5846 5846 5846 5846 5845 5845 5844 5843 5842 5842 5841 5840 5839
5828 5828 5829 5831 5831 5831 5832 5833 5833 5833 5833 5834 5834 5835 5835 5836 5837 5837 5838 5839 5840 5840 5840 5841 5841 5841 5841 5841 5841 5842 5842 5841 5841 5841 5840 5840 5839 5839 5838 5837 5836 5835 5834 5833
5825 5826 5826 5828 5828 5828 5830 5829 5830 5830 5830 5830 5831 5832 5832 5832 5833 5834 5834 5835 5835 5836 5836 5836 5836 5836 5836 5836 5836 5836 5836 5836 5835 5835 5835 5834 5833 5833 5832 5831 5830 5829 5828 5827
5821 5822 5822 5823 5824 5825 5827 5827 5826 5826 5826 5826 5827 5828 5828 5828 5829 5829 5830 5830 5831 5831 5831 5831 5831 5831 5831 5831 5831 5831 5830 5830 5829 5829 5828 5828 5827 5826 5825 5824 5823 5822 5821 5820
5816 5817 5820 5819 5820 5821 5822 5821 5821 5822 5822 5822 5822 5822 5823 5824 5824 5825 5825 5825 5825 5825 5826 5826 5825 5826 5826 5825 5825 5825 5824 5824 5823 5823 5822 5821 5820 5819 5818 5817 5816 5815 5814 5813
5812 5814 5814 5814 5815 5815 5816 5816 5817 5817 5817 5817 5818 5818 5818 5819 5819 5819 5819 5819 5820 5820 5820 5820 5820 5819 5819 5819 5818 5818 5817 5817 5816 5816 5815 5814 5814 5812 5811 5810 5809 5808 5806 5805
5806 5807 5808 5808 5809 5810 5811 5811 5811 5811 5812 5812 5813 5813 5813 5813 5813 5813 5813 5813 5813 5813 5814 5814 5813 5813 5813 5812 5812 5811 5811 5810 5809 5809 5808 5807 5806 5805 5804 5802 5801 5800 5798 5796
5799 5801 5801 5802 5803 5804 5805 5805 5805 5806 5806 5807 5807 5807 5807 5807 5807 5807 5807 5807 5807 5807 5807 5807 5806 5806 5805 5805 5804 5804 5803 5802 5801 5801 5800 5799 5798 5796 5795 5794 5792 5791 5789 5787
5793 5794 5795 5796 5796 5797 5798 5798 5799 5800 5800 5800 5800 5801 5801 5801 5801 5801 5801 5800 5800 5800 5800 5799 5799 5799 5798 5797 5796 5796 5795 5794 5793 5792 5791 5790 5789 5787 5785 5784 5782 5781 5779 5777
5785 5787 5787 5788 5790 5790 5791 5791 5792 5793 5793 5793 5794 5794 5794 5794 5794 5794 5794 5794 5793 5793 5792 5792 5791 5791 5790 5789 5788 5787 5786 5785 5784 5783 5782 5780 5779 5778 5776 5775 5773 5771 5769 5766
5777 5779 5779 5781 5782 5783 5783 5784 5785 5785 5786 5786 5786 5787 5787 5787 5787 5787 5787 5786 5786 5785 5784 5784 5783 5782 5781 5780 5779 5778 5777 5776 5774 5773 5772 5771 5769 5768 5766 5764 5763 5761 5758 5756
5769 5770 5772 5773 5774 5775 5775 5776 5777 5777 5778 5778 5778 5779 5779 5779 5779 5779 5779 5778 5777 5777 5776 5775 5774 5773 5772 5771 5770 5768 5767 5766 5764 5763 5762 5760 5759 5757 5755 5753 5752 5750 5747 5744
5760 5762 5763 5764 5765 5766 5767 5767 5768 5769 5769 5769 5770 5770 5770 5770 5770 5770 5770 5769 5769 5768 5767 5766 5765 5764 5762 5761 5760 5758 5757 5756 5754 5753 5751 5750 5748 5746 5744 5742 5740 5737 5735 5732
5750 5752 5754 5755 5756 5757 5758 5758 5759 5759 5760 5760 5761 5761 5761 5761 5761 5761 5761 5760 5760 5759 5758 5757 5756 5754 5753 5751 5750 5748 5747 5745 5744 5742 5741 5739 5737 5734 5732 5730 5727 5725 5722 5718
5741 5743 5744 5745 5746 5747 5748 5749 5749 5750 5750 5751 5751 5752 5752 5752 5752 5752 5751 5751 5750 5749 5748 5747 5746 5744 5743 5741 5740 5738 5737 5735 5733 5731 5729 5727 5725 5722 5720 5717 5714 5712 5708 5705
5731 5732 5734 5735 5736 5737 5738 5739 5739 5740 5741 5741 5742 5742 5742 5742 5742 5742 5742 5741 5741 5740 5739 5737 5736 5734 5732 5731 5729 5727 5726 5724 5722 5720 5718 5715 5712 5710 5707 5704 5701 5698 5695 5691
5720 5722 5723 5724 5726 5727 5728 5729 5729 5730 5730 5731 5731 5732 5732 5732 5732 5732 5732 5731 5730 5730 5729 5727 5725 5724 5722 5720 5718 5716 5715 5713 5710 5708 5706 5703 5700 5697 5694 5691 5688 5684 5681 5678
5710 5712 5713 5714 5715 5716 5717 5718 5718 5719 5720 5720 5721 5722 5722 5722 5722 5722 5721 5721 5720 5719 5718 5716 5715 5713 5711 5709 5707 5705 5703 5701 5698 5696 5693 5690 5687 5684 5681 5678 5674 5671 5668 5664
5700 5701 5702 5703 5704 5705 5706 5707 5708 5709 5710 5710 5711 5711 5711 5711 5711 5711 5711 5710 5709 5708 5706 5705 5704 5702 5700 5698 5696 5694 5692 5689 5686 5683 5680 5677 5674 5671 5668 5665 5661 5658 5654 5650
5689 5690 5692 5693 5693 5694 5695 5696 5697 5698 5699 5700 5700 5701 5701 5701 5701 5700 5700 5699 5698 5697 5695 5694 5692 5690 5689 5687 5685 5683 5680 5677 5674 5671 5668 5665 5662 5658 5655 5652 5648 5644 5641 5637
5678 5680 5681 5681 5682 5684 5685 5686 5687 5688 5688 5689 5689 5690 5690 5690 5690 5689 5688 5687 5686 5686 5684 5683 5681 5679 5677 5675 5673 5671 5668 5665 5662 5658 5655 5652 5649 5646 5642 5639 5635 5631 5627 5623
5668 5669 5670 5671 5672 5673 5674 5675 5676 5677 5678 5678 5678 5679 5679 5678 5678 5678 5677 5676 5675 5674 5673 5671 5669 5667 5666 5663 5661 5658 5655 5652 5649 5646 5643 5640 5636 5633 5630 5626 5622 5618 5614 5610
5658 5659 5660 5661 5662 5663 5664 5664 5665 5666 5666 5667 5667 5667 5667 5667 5667 5666 5666 5665 5663 5662 5661 5660 5658 5656 5653 5651 5648 5646 5642 5639 5637 5634 5631 5627 5624 5620 5617 5613 5609 5605 5601 5597
5647 5648 5649 5650 5651 5652 5653 5654 5654 5655 5655 5656 5656 5656 5656 5655 5655 5654 5654 5652 5651 5650 5649 5647 5645 5643 5641 5638 5636 5633 5630 5627 5624 5621 5618 5615 5611 5608 5604 5600 5596 5592 5588 5584